Retour au catalogue

CO3D4

ActifScienceSSO
NORAD 64901·PAYLOAD·🇫🇷 France

Lancé Jul 26, 2025 depuis Guiana Space Centre

Loading…

Prochains Passages (prochaines 24 heures)

TLE

FraisSource: Space-Track

Époque: Sep 14, 2026, 12:13 UTC

1 64901U 25156C   26257.50930719  .00003358  00000-0  15815-3 0  9997
2 64901  97.4343 334.9185 0001662  39.1806 320.9549 15.20203708 63107

Suivez CO3D4 en temps réel avec AllMySat

Download on the App Store